When you browse on this site, cookies collect data to enhance your experience and personalize the content and advertising you see.
Visit our Privacy Policy to learn more. By continuing to use the site, you agree to this use of cookies and data.
  • In Hungary
  • List of Countries
  • For 7 days
  • Water Temperature
  • Weather Map
  • News
  • Weather Widgets
  • user-avatar
    Login

    Hourly Weather Jha Jha

    Today, 21 November, Thursday

    Time Temperature Precipitation Wind Pressure Humidity
    00:00 +19°C° 0 mm 0 mps 746 mmHg 50%
    01:00 +19°C° 0 mm 0 mps 746 mmHg 51%
    02:00 +18°C° 0 mm 0 mps 745 mmHg 51%
    03:00 +18°C° 0 mm 0 mps 745 mmHg 52%
    04:00 +18°C° 0 mm 0 mps 745 mmHg 52%
    05:00 +17°C° 0 mm 0 mps 745 mmHg 53%
    06:00 +17°C° 0 mm 0 mps 745 mmHg 59%
    07:00 +21°C° 0 mm 1 mps 746 mmHg 55%
    08:00 +23°C° 0 mm 1 mps 746 mmHg 51%
    09:00 +25°C° 0 mm 1 mps 747 mmHg 47%
    10:00 +26°C° 0 mm 1 mps 747 mmHg 44%
    11:00 +27°C° 0 mm 1 mps 747 mmHg 41%
    12:00 +29°C° 0 mm 1 mps 746 mmHg 38%
    13:00 +29°C° 0 mm 1 mps 746 mmHg 36%
    14:00 +29°C° 0 mm 1 mps 745 mmHg 34%
    15:00 +29°C° 0 mm 1 mps 744 mmHg 33%
    16:00 +28°C° 0 mm 2 mps 744 mmHg 37%
    17:00 +26°C° 0 mm 2 mps 744 mmHg 42%
    18:00 +24°C° 0 mm 2 mps 744 mmHg 46%
    19:00 +24°C° 0 mm 2 mps 745 mmHg 47%
    20:00 +23°C° 0 mm 1 mps 745 mmHg 48%
    21:00 +23°C° 0 mm 1 mps 746 mmHg 49%
    22:00 +22°C° 0 mm 1 mps 746 mmHg 50%
    23:00 +22°C° 0 mm 1 mps 746 mmHg 51%

    Tomorrow, 22 November, Friday

    Time Temperature Precipitation Wind Pressure Humidity
    00:00 +19°C° 0 mm 0 mps 745 mmHg 51%
    01:00 +19°C° 0 mm 0 mps 745 mmHg 52%
    02:00 +20°C° 0 mm 1 mps 745 mmHg 52%
    03:00 +20°C° 0 mm 1 mps 745 mmHg 53%
    04:00 +20°C° 0 mm 1 mps 745 mmHg 53%
    05:00 +19°C° 0 mm 1 mps 745 mmHg 54%
    06:00 +19°C° 0 mm 1 mps 746 mmHg 55%
    07:00 +21°C° 0 mm 1 mps 746 mmHg 52%
    08:00 +22°C° 0 mm 1 mps 747 mmHg 49%
    09:00 +24°C° 0 mm 1 mps 747 mmHg 46%
    10:00 +25°C° 0 mm 1 mps 747 mmHg 43%
    11:00 +26°C° 0 mm 1 mps 747 mmHg 40%
    12:00 +28°C° 0 mm 2 mps 746 mmHg 36%
    13:00 +28°C° 0 mm 2 mps 746 mmHg 35%
    14:00 +28°C° 0 mm 2 mps 745 mmHg 34%
    15:00 +29°C° 0 mm 2 mps 744 mmHg 33%
    16:00 +27°C° 0 mm 2 mps 744 mmHg 37%
    17:00 +25°C° 0 mm 2 mps 744 mmHg 41%
    18:00 +24°C° 0 mm 1 mps 744 mmHg 45%
    19:00 +23°C° 0 mm 1 mps 744 mmHg 46%
    20:00 +23°C° 0 mm 1 mps 745 mmHg 47%
    21:00 +22°C° 0 mm 1 mps 745 mmHg 48%
    22:00 +22°C° 0 mm 1 mps 745 mmHg 48%
    23:00 +22°C° 0 mm 1 mps 745 mmHg 49%

    Day after tomorrow, 23 November, Saturday

    Time Temperature Precipitation Wind Pressure Humidity
    00:00 +22°C° 0 mm 1 mps 745 mmHg 50%
    01:00 +21°C° 0 mm 1 mps 745 mmHg 51%
    02:00 +21°C° 0 mm 1 mps 745 mmHg 52%
    03:00 +21°C° 0 mm 1 mps 745 mmHg 52%
    04:00 +21°C° 0 mm 1 mps 745 mmHg 54%
    05:00 +20°C° 0 mm 1 mps 745 mmHg 56%
    06:00 +20°C° 0 mm 1 mps 745 mmHg 58%
    07:00 +22°C° 0 mm 1 mps 745 mmHg 54%
    08:00 +23°C° 0 mm 2 mps 746 mmHg 51%
    09:00 +25°C° 0 mm 2 mps 746 mmHg 48%
    10:00 +26°C° 0 mm 2 mps 746 mmHg 45%
    11:00 +28°C° 0 mm 3 mps 746 mmHg 42%
    12:00 +29°C° 0 mm 3 mps 745 mmHg 39%
    13:00 +29°C° 0 mm 3 mps 745 mmHg 39%
    14:00 +29°C° 0 mm 3 mps 744 mmHg 38%
    15:00 +30°C° 0 mm 3 mps 743 mmHg 37%
    16:00 +28°C° 0 mm 2 mps 743 mmHg 41%
    17:00 +27°C° 0 mm 2 mps 743 mmHg 45%
    18:00 +25°C° 0 mm 1 mps 743 mmHg 48%
    19:00 +25°C° 0 mm 1 mps 744 mmHg 49%
    20:00 +24°C° 0 mm 1 mps 744 mmHg 51%
    21:00 +23°C° 0 mm 1 mps 744 mmHg 52%
    22:00 +23°C° 0 mm 1 mps 744 mmHg 52%
    23:00 +22°C° 0 mm 1 mps 744 mmHg 53%

    24 November, Sunday

    Time Temperature Precipitation Wind Pressure Humidity
    00:00 +22°C° 0 mm 1 mps 744 mmHg 54%
    01:00 +22°C° 0 mm 1 mps 744 mmHg 54%
    02:00 +21°C° 0 mm 1 mps 743 mmHg 54%
    03:00 +21°C° 0 mm 1 mps 743 mmHg 54%
    04:00 +20°C° 0 mm 1 mps 743 mmHg 54%
    05:00 +20°C° 0 mm 1 mps 743 mmHg 55%
    06:00 +20°C° 0 mm 1 mps 743 mmHg 55%
    07:00 +21°C° 0 mm 1 mps 744 mmHg 51%
    08:00 +23°C° 0 mm 1 mps 744 mmHg 47%
    09:00 +24°C° 0 mm 2 mps 745 mmHg 43%
    10:00 +26°C° 0 mm 2 mps 745 mmHg 39%
    11:00 +27°C° 0 mm 2 mps 745 mmHg 35%
    12:00 +29°C° 0 mm 3 mps 744 mmHg 31%
    13:00 +29°C° 0 mm 3 mps 744 mmHg 31%
    14:00 +29°C° 0 mm 3 mps 743 mmHg 31%
    15:00 +29°C° 0 mm 3 mps 743 mmHg 31%
    16:00 +28°C° 0 mm 2 mps 743 mmHg 35%
    17:00 +26°C° 0 mm 2 mps 743 mmHg 40%
    18:00 +24°C° 0 mm 1 mps 743 mmHg 44%
    19:00 +24°C° 0 mm 1 mps 744 mmHg 45%
    20:00 +23°C° 0 mm 1 mps 744 mmHg 47%
    21:00 +21°C° 0 mm 0 mps 745 mmHg 48%
    22:00 +23°C° 0 mm 1 mps 745 mmHg 49%
    23:00 +22°C° 0 mm 1 mps 744 mmHg 51%

    25 November, Monday

    Time Temperature Precipitation Wind Pressure Humidity
    00:00 +22°C° 0 mm 1 mps 744 mmHg 52%
    01:00 +22°C° 0 mm 1 mps 744 mmHg 53%
    02:00 +22°C° 0 mm 1 mps 744 mmHg 54%
    03:00 +21°C° 0 mm 1 mps 744 mmHg 55%
    04:00 +21°C° 0 mm 1 mps 744 mmHg 57%
    05:00 +21°C° 0 mm 1 mps 744 mmHg 59%
    06:00 +20°C° 0 mm 1 mps 744 mmHg 60%
    07:00 +22°C° 0 mm 1 mps 745 mmHg 57%
    08:00 +23°C° 0 mm 1 mps 746 mmHg 54%
    09:00 +24°C° 0 mm 1 mps 746 mmHg 51%
    10:00 +26°C° 0 mm 1 mps 746 mmHg 47%
    11:00 +27°C° 0 mm 2 mps 746 mmHg 44%
    12:00 +28°C° 0 mm 2 mps 746 mmHg 41%
    13:00 +28°C° 0 mm 2 mps 745 mmHg 40%
    14:00 +29°C° 0 mm 2 mps 745 mmHg 39%
    15:00 +29°C° 0 mm 2 mps 744 mmHg 38%
    16:00 +27°C° 0 mm 2 mps 744 mmHg 42%
    17:00 +26°C° 0 mm 2 mps 744 mmHg 46%
    18:00 +25°C° 0 mm 1 mps 744 mmHg 51%
    19:00 +24°C° 0 mm 1 mps 745 mmHg 51%
    20:00 +24°C° 0 mm 1 mps 745 mmHg 52%
    21:00 +21°C° 0 mm 0 mps 746 mmHg 53%
    22:00 +21°C° 0 mm 0 mps 745 mmHg 54%
    23:00 +22°C° 0 mm 1 mps 745 mmHg 56%

    26 November, Tuesday

    Time Temperature Precipitation Wind Pressure Humidity
    00:00 +22°C° 0 mm 1 mps 745 mmHg 57%
    01:00 +21°C° 0 mm 1 mps 745 mmHg 58%
    02:00 +21°C° 0 mm 1 mps 745 mmHg 59%
    03:00 +21°C° 0 mm 1 mps 745 mmHg 59%
    04:00 +20°C° 0 mm 1 mps 745 mmHg 60%
    05:00 +20°C° 0 mm 1 mps 745 mmHg 62%
    06:00 +20°C° 0 mm 1 mps 745 mmHg 63%
    07:00 +21°C° 0 mm 1 mps 746 mmHg 58%
    08:00 +23°C° 0 mm 1 mps 746 mmHg 54%
    09:00 +24°C° 0 mm 1 mps 747 mmHg 49%
    10:00 +26°C° 0 mm 2 mps 747 mmHg 46%
    11:00 +27°C° 0 mm 2 mps 746 mmHg 43%
    12:00 +28°C° 0 mm 2 mps 746 mmHg 39%
    13:00 +29°C° 0 mm 2 mps 745 mmHg 38%
    14:00 +29°C° 0 mm 2 mps 745 mmHg 36%
    15:00 +30°C° 0 mm 2 mps 744 mmHg 34%
    16:00 +28°C° 0 mm 2 mps 744 mmHg 38%
    17:00 +26°C° 0 mm 2 mps 744 mmHg 42%
    18:00 +25°C° 0 mm 1 mps 744 mmHg 46%
    19:00 +24°C° 0 mm 1 mps 744 mmHg 47%
    20:00 +24°C° 0 mm 1 mps 745 mmHg 48%
    21:00 +23°C° 0 mm 1 mps 745 mmHg 50%
    22:00 +23°C° 0 mm 1 mps 745 mmHg 50%
    23:00 +22°C° 0 mm 1 mps 745 mmHg 51%
    Show more